"startDT [UTC]","vpos","CH4 [ppm]","stdev(CH4) [ppm]","CO2 [ppm]","stdev(CO2) [ppm]","H2O_reported [%]","stdev(H2O_reported)","CavityPressure [torr]","CavityTemp [C]","OutletValve","CH4_dry [ppm]","CO2_dry [ppm]","DasTemp [C]","EtalonTemp [C]","WarmBoxTemp [C]","MPVPosition","T_ECpre [C]","T_EC1 [C]","T_EC2 [C]","p_inlet [hPa]","p_in [hPa]","p_out [hPa]","T_inlet [C]","RH_inlet [%]","dwpt_inlet [C]","T_vent [C]","RH_vent [%]","dwpt_vent [C]","flow_vent [l min-1]","flow_inlet [l min-1]","dwpt_sample [C]","T_room [C]"
2016-12-23 00:00:00,0.0,1.97223,0.00032,411.145,0.042,0.0418,0.0017,140.000,45.000,31873.51099,1.97304,411.351,34.305,45.072,45.000,0.00,0.06,-272.88,-272.92,-5,538,-955,19.5,1.5,-34.2,20.0,1.6,-33.4,0.47,1.96,-20.2,26.2
2016-12-23 00:01:00,0.0,1.97223,0.00038,411.121,0.032,0.0420,0.0017,139.999,45.000,31876.36370,1.97304,411.330,34.292,45.072,45.000,0.00,0.06,-272.88,-272.91,-4,538,-955,19.6,1.5,-34.2,20.0,1.5,-33.5,0.47,2.00,-20.2,26.2
2016-12-23 00:02:00,0.0,1.97182,0.00036,411.092,0.025,0.0419,0.0019,139.999,45.000,31878.29087,1.97266,411.299,34.289,45.072,45.000,0.00,0.06,-272.89,-272.92,-4,538,-955,19.5,1.5,-34.0,20.0,1.6,-33.4,0.47,2.00,-20.2,26.2
2016-12-23 00:03:00,0.0,1.97201,0.00037,411.112,0.040,0.0417,0.0016,139.999,45.000,31877.92866,1.97281,411.316,34.300,45.072,45.000,0.00,0.06,-272.88,-272.92,-5,538,-955,19.5,1.5,-33.9,20.0,1.6,-33.3,0.47,1.97,-20.2,26.2
2016-12-23 00:04:00,0.0,1.97183,0.00031,411.124,0.024,0.0426,0.0015,139.999,45.000,31878.20656,1.97268,411.335,34.301,45.072,45.000,0.00,0.06,-272.87,-272.91,-5,538,-955,19.5,1.5,-33.9,20.0,1.6,-33.3,0.47,1.94,-20.2,26.2
2016-12-23 00:05:00,0.0,1.97187,0.00034,411.139,0.034,0.0423,0.0018,139.999,45.000,31877.61948,1.97265,411.347,34.294,45.072,45.000,0.00,0.06,-272.88,-272.92,-5,538,-955,19.5,1.5,-33.9,20.0,1.6,-33.3,0.47,1.90,-20.2,26.2
2016-12-23 00:06:00,0.0,1.97159,0.00047,411.127,0.030,0.0432,0.0019,139.999,45.000,31879.48843,1.97247,411.341,34.299,45.072,45.000,0.00,0.06,-272.88,-272.92,-5,538,-955,19.5,1.5,-33.8,20.0,1.6,-33.1,0.47,1.89,-20.2,26.2
2016-12-23 00:07:00,0.0,1.97174,0.00034,411.109,0.029,0.0434,0.0018,139.997,45.000,31878.25922,1.97256,411.324,34.311,45.072,45.000,0.00,0.06,-272.88,-272.91,-4,538,-955,19.5,1.5,-33.8,20.0,1.6,-33.2,0.47,1.90,-20.2,26.2
2016-12-23 00:08:00,0.0,1.97188,0.00028,411.095,0.029,0.0432,0.0019,140.003,45.000,31878.60655,1.97271,411.308,34.313,45.072,45.000,0.00,0.06,-272.88,-272.92,-4,538,-955,19.5,1.5,-33.8,20.0,1.6,-33.1,0.47,1.94,-20.2,26.2
2016-12-23 00:09:00,0.0,1.97165,0.00034,411.114,0.028,0.0441,0.0015,140.001,45.000,31879.77819,1.97251,411.332,34.330,45.072,45.000,0.00,0.06,-272.89,-272.92,-5,538,-955,19.5,1.5,-33.8,20.0,1.6,-33.1,0.47,1.98,-20.2,26.2
2016-12-23 00:10:00,0.0,1.97161,0.00036,411.100,0.029,0.0433,0.0020,139.996,45.000,31875.92653,1.97246,411.315,34.329,45.072,45.000,0.00,0.06,-272.89,-272.91,-5,538,-955,19.5,1.5,-33.8,20.0,1.6,-33.2,0.47,2.00,-20.2,26.2
2016-12-23 00:11:00,0.0,1.97175,0.00040,411.095,0.029,0.0436,0.0013,139.998,45.000,31876.91678,1.97258,411.309,34.340,45.072,45.000,0.00,0.07,-272.88,-272.91,-5,538,-955,19.5,1.6,-33.6,20.0,1.6,-33.1,0.47,1.99,-20.3,26.2
2016-12-23 00:12:00,0.0,1.97187,0.00030,411.104,0.030,0.0434,0.0014,140.000,45.000,31875.93464,1.97273,411.319,34.375,45.072,45.000,0.00,0.06,-272.89,-272.91,-5,538,-955,19.5,1.6,-33.7,20.0,1.6,-33.0,0.47,1.97,-20.2,26.2
2016-12-23 00:13:00,0.0,1.97181,0.00027,411.096,0.039,0.0438,0.0016,139.998,45.000,31876.50433,1.97264,411.312,34.375,45.071,45.000,0.00,0.06,-272.89,-272.92,-4,538,-955,19.5,1.6,-33.6,20.0,1.6,-33.1,0.47,1.92,-20.2,26.2
2016-12-23 00:14:00,0.0,1.97189,0.00035,411.103,0.033,0.0439,0.0015,139.997,45.000,31874.80129,1.97272,411.321,34.374,45.071,45.000,0.00,0.06,-272.88,-272.91,-5,538,-955,19.5,1.6,-33.6,20.0,1.6,-33.0,0.47,1.89,-20.2,26.2
2016-12-23 00:15:00,0.0,1.97193,0.00043,411.101,0.028,0.0443,0.0018,139.999,45.000,31874.33566,1.97284,411.320,34.367,45.071,45.000,0.00,0.06,-272.88,-272.92,-5,538,-955,19.5,1.6,-33.4,20.0,1.7,-32.8,0.47,1.89,-20.2,26.2
2016-12-23 00:16:00,0.0,1.97209,0.00027,411.111,0.021,0.0441,0.0017,140.000,45.000,31873.41239,1.97292,411.328,34.371,45.072,45.000,0.00,0.06,-272.88,-272.92,-5,538,-955,19.5,1.6,-33.4,20.0,1.6,-32.8,0.47,1.91,-20.2,26.2
2016-12-23 00:17:00,0.0,1.97216,0.00038,411.087,0.036,0.0443,0.0017,139.999,45.000,31873.73283,1.97303,411.307,34.375,45.072,45.000,0.00,0.06,-272.87,-272.91,-5,538,-955,19.6,1.6,-33.5,20.0,1.6,-32.8,0.47,1.95,-20.2,26.2
2016-12-23 00:18:00,0.0,1.97206,0.00030,411.074,0.036,0.0439,0.0012,139.999,45.000,31871.98864,1.97292,411.289,34.374,45.072,45.000,0.00,0.06,-272.88,-272.91,-5,538,-955,19.6,1.6,-33.7,20.0,1.6,-33.0,0.47,1.99,-20.2,26.2
2016-12-23 00:19:00,0.0,1.97204,0.00034,411.113,0.033,0.0431,0.0015,139.998,45.000,31873.20994,1.97286,411.327,34.373,45.072,45.000,0.00,0.06,-272.89,-272.91,-4,538,-955,19.6,1.5,-33.7,20.0,1.6,-33.1,0.47,2.00,-20.2,26.2
2016-12-23 00:20:00,0.0,1.97224,0.00040,411.080,0.025,0.0429,0.0013,139.999,45.000,31873.91552,1.97308,411.292,34.369,45.072,45.000,0.00,0.07,-272.88,-272.92,-5,538,-955,19.6,1.5,-33.9,20.0,1.6,-33.2,0.47,1.99,-20.2,26.2
2016-12-23 00:21:00,0.0,1.97245,0.00040,411.111,0.031,0.0417,0.0021,140.000,45.000,31873.60527,1.97323,411.316,34.368,45.072,45.000,0.00,0.07,-272.88,-272.92,-5,538,-955,19.6,1.5,-34.0,20.0,1.6,-33.3,0.47,1.95,-20.3,26.2
2016-12-23 00:22:00,0.0,1.97219,0.00039,411.087,0.034,0.0421,0.0015,140.000,45.000,31874.73737,1.97303,411.296,34.359,45.072,45.000,0.00,0.06,-272.89,-272.92,-5,538,-955,19.6,1.5,-33.9,20.0,1.6,-33.3,0.47,1.91,-20.2,26.2
2016-12-23 00:23:00,0.0,1.97208,0.00038,411.077,0.025,0.0428,0.0018,139.997,45.000,31874.41356,1.97287,411.286,34.345,45.072,45.000,0.00,0.06,-272.89,-272.92,-5,538,-955,19.6,1.5,-33.9,20.0,1.6,-33.3,0.47,1.89,-20.2,26.2
2016-12-23 00:24:00,0.0,1.97187,0.00037,411.063,0.045,0.0428,0.0024,140.000,45.000,31875.89093,1.97272,411.276,34.350,45.072,45.000,0.00,0.06,-272.87,-272.91,-5,538,-955,19.6,1.5,-33.9,20.0,1.6,-33.4,0.47,1.89,-20.2,26.2
2016-12-23 00:25:00,0.0,1.97203,0.00040,411.066,0.032,0.0421,0.0022,139.999,45.000,31874.30901,1.97285,411.274,34.367,45.072,45.000,0.00,0.06,-272.89,-272.92,-4,538,-955,19.6,1.5,-33.9,20.0,1.6,-33.3,0.47,1.92,-20.2,26.2
2016-12-23 00:26:00,0.0,1.97162,0.00041,411.042,0.039,0.0414,0.0014,139.997,45.000,31875.65566,1.97242,411.245,34.361,45.072,45.000,0.00,0.06,-272.89,-272.92,-5,538,-955,19.6,1.5,-33.9,20.0,1.6,-33.3,0.47,1.96,-20.2,26.2
2016-12-23 00:27:00,0.0,1.97195,0.00033,411.032,0.043,0.0416,0.0019,139.999,45.000,31872.35582,1.97277,411.240,34.359,45.072,45.000,0.00,0.06,-272.88,-272.91,-5,538,-955,19.6,1.5,-34.1,20.0,1.6,-33.3,0.47,1.99,-20.2,26.2
2016-12-23 00:28:00,0.0,1.97194,0.00031,411.022,0.045,0.0415,0.0018,140.000,45.000,31873.86141,1.97274,411.225,34.362,45.072,45.000,0.00,0.06,-272.88,-272.91,-5,538,-955,19.6,1.5,-34.2,20.0,1.5,-33.5,0.47,2.00,-20.2,26.2
2016-12-23 00:29:00,0.0,1.97157,0.00052,411.016,0.032,0.0416,0.0020,139.998,45.000,31876.03608,1.97237,411.222,34.341,45.072,45.000,0.00,0.06,-272.89,-272.93,-5,538,-955,19.6,1.5,-34.1,20.0,1.5,-33.5,0.47,1.98,-20.2,26.2
2016-12-23 00:30:00,0.0,1.97180,0.00029,411.038,0.031,0.0422,0.0017,139.998,45.000,31875.61642,1.97262,411.247,34.346,45.072,45.000,0.00,0.06,-272.88,-272.92,-4,538,-955,19.6,1.5,-34.1,20.0,1.5,-33.5,0.47,1.94,-20.2,26.2
2016-12-23 00:31:00,0.0,1.97201,0.00030,411.035,0.031,0.0422,0.0011,139.999,45.000,31873.28268,1.97282,411.242,34.358,45.072,45.000,0.00,0.06,-272.87,-272.92,-4,538,-955,19.6,1.5,-33.9,20.0,1.6,-33.3,0.47,1.90,-20.2,26.2
2016-12-23 00:32:00,0.0,1.97236,0.00045,411.012,0.036,0.0430,0.0014,140.001,45.000,31872.62621,1.97320,411.226,34.348,45.072,45.000,0.00,0.06,-272.87,-272.92,-5,538,-955,19.6,1.5,-33.8,20.0,1.6,-33.3,0.46,1.89,-20.2,26.2
2016-12-23 00:33:00,0.0,1.97191,0.00038,411.013,0.038,0.0435,0.0015,139.998,45.000,31873.72889,1.97277,411.228,34.361,45.072,45.000,0.00,0.06,-272.88,-272.92,-5,538,-955,19.6,1.5,-33.7,20.0,1.6,-33.1,0.47,1.89,-20.2,26.2
2016-12-23 00:34:00,0.0,1.97206,0.00038,411.006,0.028,0.0436,0.0019,139.999,45.000,31873.85584,1.97289,411.221,34.362,45.072,45.000,0.00,0.07,-272.88,-272.92,-5,538,-955,19.6,1.5,-33.8,20.0,1.6,-33.1,0.47,1.93,-20.2,26.2
2016-12-23 00:35:00,0.0,1.97183,0.00031,411.027,0.031,0.0434,0.0014,140.000,45.000,31873.86507,1.97270,411.241,34.329,45.072,45.000,0.00,0.06,-272.88,-272.92,-5,538,-955,19.6,1.5,-33.7,20.0,1.6,-33.1,0.47,1.97,-20.2,26.3
2016-12-23 00:36:00,0.0,1.97214,0.00028,411.008,0.027,0.0422,0.0021,140.001,45.000,31873.02988,1.97295,411.217,34.348,45.072,45.000,0.00,0.06,-272.89,-272.91,-4,538,-955,19.6,1.5,-33.9,20.0,1.6,-33.1,0.47,2.00,-20.2,26.2
2016-12-23 00:37:00,0.0,1.97182,0.00031,410.991,0.034,0.0421,0.0018,139.998,45.000,31872.42554,1.97265,411.199,34.374,45.072,45.000,0.00,0.06,-272.88,-272.92,-4,538,-955,19.6,1.5,-33.9,20.0,1.6,-33.3,0.47,2.00,-20.2,26.2
2016-12-23 00:38:00,0.0,1.97212,0.00037,411.029,0.031,0.0434,0.0018,140.000,45.000,31871.40792,1.97295,411.243,34.381,45.072,45.000,0.00,0.06,-272.88,-272.92,-5,538,-955,19.6,1.5,-33.9,20.0,1.6,-33.3,0.46,1.97,-20.2,26.2
2016-12-23 00:39:00,0.0,1.97196,0.00033,411.018,0.027,0.0427,0.0018,140.000,45.000,31872.56203,1.97278,411.229,34.375,45.072,45.000,0.00,0.06,-272.89,-272.92,-5,538,-955,19.6,1.5,-33.9,20.0,1.6,-33.3,0.46,1.94,-20.2,26.2
2016-12-23 00:40:00,0.0,1.97226,0.00031,411.043,0.031,0.0433,0.0020,139.999,45.000,31872.42890,1.97311,411.256,34.375,45.072,45.000,0.00,0.06,-272.88,-272.92,-5,538,-955,19.6,1.5,-33.9,20.0,1.6,-33.3,0.47,1.90,-20.2,26.2
2016-12-23 00:41:00,0.0,1.97219,0.00039,411.033,0.034,0.0430,0.0021,140.000,45.000,31873.46157,1.97302,411.246,34.375,45.072,45.000,0.00,0.06,-272.88,-272.91,-5,538,-955,19.6,1.5,-33.9,20.0,1.6,-33.3,0.47,1.89,-20.2,26.2
2016-12-23 00:42:00,0.0,1.97217,0.00046,411.044,0.037,0.0419,0.0016,140.000,45.000,31873.07702,1.97296,411.249,34.377,45.072,45.000,0.00,0.06,-272.88,-272.91,-4,538,-955,19.6,1.5,-33.9,20.0,1.6,-33.3,0.46,1.90,-20.2,26.2
2016-12-23 00:43:00,0.0,1.97209,0.00045,411.042,0.034,0.0427,0.0016,140.002,45.000,31873.90197,1.97299,411.254,34.375,45.072,45.000,0.00,0.06,-272.88,-272.92,-4,538,-955,19.6,1.5,-33.9,20.0,1.6,-33.3,0.47,1.93,-20.2,26.2
2016-12-23 00:44:00,0.0,1.97221,0.00041,411.044,0.028,0.0420,0.0017,140.000,45.000,31872.02824,1.97295,411.250,34.377,45.072,45.000,0.00,0.06,-272.88,-272.91,-5,538,-955,19.6,1.5,-34.0,20.0,1.6,-33.3,0.47,1.98,-20.2,26.2
2016-12-23 00:45:00,0.0,1.97234,0.00029,411.058,0.025,0.0429,0.0018,140.000,45.000,31872.75105,1.97318,411.271,34.375,45.072,45.000,0.00,0.06,-272.89,-272.92,-5,538,-955,19.6,1.5,-33.9,20.0,1.6,-33.3,0.47,2.00,-20.2,26.2
2016-12-23 00:46:00,0.0,1.97206,0.00030,411.026,0.035,0.0426,0.0013,140.000,45.000,31873.26298,1.97291,411.236,34.375,45.072,45.000,0.00,0.06,-272.89,-272.92,-5,538,-955,19.6,1.5,-33.9,20.0,1.6,-33.3,0.47,1.99,-20.2,26.2
2016-12-23 00:47:00,0.0,1.97199,0.00023,411.024,0.028,0.0427,0.0020,139.999,45.000,31874.67763,1.97282,411.236,34.361,45.072,45.000,0.00,0.06,-272.88,-272.92,-5,538,-955,19.6,1.5,-33.8,20.0,1.6,-33.2,0.47,1.97,-20.2,26.2
2016-12-23 00:48:00,0.0,1.97206,0.00041,411.077,0.023,0.0439,0.0021,139.998,45.000,31872.08622,1.97291,411.293,34.368,45.072,45.000,0.00,0.07,-272.88,-272.92,-4,538,-955,19.6,1.5,-33.7,20.0,1.6,-33.1,0.46,1.94,-20.2,26.2
2016-12-23 00:49:00,0.0,1.97198,0.00032,411.073,0.031,0.0436,0.0017,140.001,45.000,31873.45041,1.97283,411.288,34.345,45.072,45.000,0.00,0.06,-272.88,-272.92,-5,538,-955,19.6,1.5,-33.8,20.0,1.6,-33.1,0.46,1.90,-20.2,26.2
2016-12-23 00:50:00,0.0,1.97188,0.00038,411.061,0.035,0.0424,0.0018,140.000,45.000,31873.83743,1.97268,411.271,34.315,45.072,45.000,0.00,0.06,-272.88,-272.91,-5,538,-955,19.6,1.5,-33.9,20.0,1.6,-33.2,0.47,1.89,-20.2,26.2
2016-12-23 00:51:00,0.0,1.97174,0.00035,411.065,0.041,0.0426,0.0015,140.002,45.000,31875.11705,1.97259,411.275,34.313,45.072,45.001,0.00,0.06,-272.87,-272.91,-5,538,-955,19.6,1.5,-34.0,20.0,1.6,-33.3,0.47,1.90,-20.2,26.2
2016-12-23 00:52:00,0.0,1.97201,0.00039,411.060,0.031,0.0439,0.0014,139.998,45.000,31873.26921,1.97284,411.278,34.332,45.072,45.001,0.00,0.06,-272.89,-272.91,-5,538,-955,19.6,1.5,-33.7,20.0,1.6,-33.1,0.47,1.93,-20.2,26.3
2016-12-23 00:53:00,0.0,1.97194,0.00036,411.059,0.029,0.0436,0.0014,139.999,45.000,31873.82066,1.97281,411.276,34.338,45.072,45.000,0.00,0.06,-272.89,-272.92,-5,538,-955,19.6,1.6,-33.6,20.0,1.6,-33.1,0.47,1.97,-20.2,26.3
2016-12-23 00:54:00,0.0,1.97201,0.00025,411.061,0.031,0.0439,0.0018,140.002,45.000,31875.20471,1.97287,411.278,34.354,45.072,45.000,0.00,0.06,-272.88,-272.91,-4,538,-955,19.6,1.6,-33.6,20.0,1.6,-33.0,0.47,1.99,-20.2,26.3
2016-12-23 00:55:00,0.0,1.97246,0.00088,414.822,6.446,0.0445,0.0016,140.001,45.000,31874.56394,1.97330,415.039,34.359,45.072,45.000,0.00,0.06,-272.88,-272.91,-5,538,-955,19.6,1.6,-33.5,20.0,1.6,-32.9,0.47,1.99,-20.2,26.3
2016-12-23 00:56:00,0.0,1.97206,0.00029,411.116,0.052,0.0455,0.0021,139.998,45.000,31872.57667,1.97295,411.343,34.369,45.072,45.000,0.00,0.06,-272.89,-272.92,-5,538,-955,19.6,1.6,-33.4,20.0,1.7,-32.8,0.46,1.97,-20.2,26.3
2016-12-23 00:57:00,0.0,1.97204,0.00040,411.076,0.023,0.0450,0.0012,139.996,45.000,31873.61348,1.97289,411.298,34.375,45.071,45.000,0.00,0.06,-272.88,-272.91,-5,538,-955,19.6,1.6,-33.4,20.0,1.7,-32.7,0.47,1.93,-20.2,26.2
2016-12-23 00:58:00,0.0,1.97199,0.00027,411.042,0.042,0.0451,0.0012,140.001,45.000,31876.83700,1.97289,411.265,34.375,45.071,45.000,0.00,0.06,-272.88,-272.92,-5,538,-955,19.6,1.6,-33.2,20.0,1.7,-32.8,0.47,1.90,-20.2,26.3
2016-12-23 00:59:00,0.0,1.97215,0.00041,411.067,0.028,0.0450,0.0014,139.998,45.000,31873.33887,1.97302,411.289,34.375,45.072,45.000,0.00,0.06,-272.88,-272.92,-5,538,-955,19.6,1.6,-33.2,20.0,1.7,-32.6,0.46,1.88,-20.3,26.2
2016-12-23 01:00:00,0.0,1.97231,0.00049,411.088,0.032,0.0458,0.0016,139.998,45.000,31871.61392,1.97320,411.313,34.375,45.072,45.000,0.00,0.06,-272.88,-272.92,-4,538,-955,19.6,1.6,-33.2,20.0,1.7,-32.6,0.47,1.90,-20.3,26.2
2016-12-23 01:01:00,0.0,1.97199,0.00035,411.077,0.030,0.0447,0.0020,139.999,45.000,31873.26870,1.97287,411.299,34.375,45.072,45.000,0.00,0.07,-272.88,-272.91,-5,538,-955,19.6,1.6,-33.3,20.0,1.7,-32.7,0.47,1.93,-20.2,26.2
2016-12-23 01:02:00,0.0,1.97217,0.00039,411.101,0.024,0.0439,0.0019,140.002,45.000,31872.58004,1.97300,411.319,34.374,45.072,45.000,0.00,0.06,-272.89,-272.92,-5,538,-955,19.6,1.6,-33.4,20.0,1.7,-32.7,0.47,1.96,-20.2,26.2
2016-12-23 01:03:00,0.0,1.97232,0.00035,411.092,0.034,0.0436,0.0016,139.999,45.000,31871.39031,1.97318,411.307,34.352,45.072,45.000,0.00,0.06,-272.89,-272.92,-5,538,-955,19.6,1.5,-33.8,20.0,1.6,-33.0,0.47,1.99,-20.2,26.2
2016-12-23 01:04:00,0.0,1.97254,0.00036,411.106,0.031,0.0432,0.0019,140.000,45.000,31873.07314,1.97336,411.319,34.316,45.072,45.000,0.00,0.06,-272.88,-272.92,-5,538,-955,19.6,1.5,-34.0,20.0,1.6,-33.2,0.47,2.00,-20.2,26.2
2016-12-23 01:05:00,0.0,1.97306,0.00046,411.116,0.026,0.0429,0.0021,139.999,45.000,31873.47147,1.97385,411.328,34.320,45.072,45.000,0.00,0.06,-272.88,-272.91,-5,538,-955,19.6,1.5,-34.1,20.0,1.6,-33.3,0.46,1.97,-20.2,26.3
2016-12-23 01:06:00,0.0,1.97333,0.00037,411.106,0.034,0.0418,0.0022,139.999,45.000,31872.30708,1.97416,411.315,34.328,45.072,45.000,0.00,0.06,-272.88,-272.92,-4,538,-955,19.6,1.5,-34.1,20.0,1.5,-33.4,0.46,1.94,-20.2,26.3
2016-12-23 01:07:00,0.0,1.97326,0.00047,411.097,0.034,0.0419,0.0014,140.000,45.000,31872.59687,1.97405,411.302,34.314,45.072,45.000,0.00,0.06,-272.89,-272.91,-5,538,-955,19.6,1.5,-34.1,20.0,1.5,-33.5,0.47,1.90,-20.2,26.3
2016-12-23 01:08:00,0.0,1.97264,0.00029,411.074,0.041,0.0416,0.0023,139.999,45.000,31873.32449,1.97349,411.281,34.307,45.072,45.000,0.00,0.06,-272.87,-272.91,-5,538,-955,19.6,1.5,-34.1,20.0,1.5,-33.5,0.46,1.89,-20.2,26.3
2016-12-23 01:09:00,0.0,1.97281,0.00043,411.068,0.035,0.0415,0.0013,139.998,45.000,31871.96498,1.97359,411.273,34.311,45.072,45.000,0.00,0.06,-272.88,-272.92,-5,538,-955,19.6,1.5,-34.1,20.0,1.5,-33.5,0.47,1.90,-20.2,26.3
2016-12-23 01:10:00,0.0,1.97288,0.00049,411.083,0.033,0.0432,0.0023,140.000,45.000,31872.97471,1.97374,411.297,34.306,45.072,45.000,0.00,0.06,-272.88,-272.92,-5,538,-955,19.6,1.5,-34.1,20.0,1.5,-33.5,0.47,1.92,-20.2,26.3
2016-12-23 01:11:00,0.0,1.97221,0.00030,411.056,0.032,0.0421,0.0018,140.001,45.000,31873.23187,1.97305,411.263,34.305,45.072,45.000,0.00,0.06,-272.88,-272.92,-5,538,-955,19.6,1.5,-34.1,20.0,1.5,-33.5,0.47,1.96,-20.3,26.3
2016-12-23 01:12:00,0.0,1.97247,0.00031,411.065,0.035,0.0418,0.0013,140.001,45.000,31872.45892,1.97327,411.271,34.302,45.072,45.000,0.00,0.06,-272.88,-272.91,-4,538,-955,19.6,1.5,-34.1,20.0,1.5,-33.5,0.46,1.99,-20.2,26.3
2016-12-23 01:13:00,0.0,1.97219,0.00027,411.081,0.022,0.0424,0.0015,140.001,45.000,31870.88973,1.97302,411.291,34.283,45.072,45.000,0.00,0.06,-272.88,-272.92,-5,538,-955,19.6,1.5,-34.0,20.0,1.6,-33.4,0.47,1.99,-20.2,26.2
2016-12-23 01:14:00,0.0,1.97232,0.00032,411.061,0.023,0.0425,0.0018,140.000,45.000,31870.28492,1.97312,411.271,34.287,45.072,45.000,0.00,0.06,-272.88,-272.92,-5,538,-955,19.6,1.5,-33.9,20.0,1.6,-33.3,0.46,1.97,-20.2,26.3
2016-12-23 01:15:00,0.0,1.97243,0.00040,411.082,0.037,0.0425,0.0017,140.000,45.000,31870.02258,1.97326,411.289,34.300,45.072,45.000,0.00,0.07,-272.87,-272.91,-5,538,-955,19.6,1.5,-33.9,20.0,1.6,-33.3,0.46,1.94,-20.2,26.3
2016-12-23 01:16:00,0.0,1.97239,0.00028,411.069,0.040,0.0423,0.0023,139.999,45.000,31870.77736,1.97321,411.280,34.323,45.072,45.000,0.00,0.06,-272.89,-272.92,-5,538,-955,19.6,1.5,-33.8,20.0,1.6,-33.3,0.46,1.91,-20.2,26.3
2016-12-23 01:17:00,0.0,1.97236,0.00036,411.059,0.038,0.0426,0.0021,140.000,45.000,31870.86905,1.97321,411.269,34.339,45.072,45.000,0.00,0.06,-272.88,-272.91,-5,538,-955,19.6,1.5,-33.9,20.0,1.6,-33.3,0.46,1.89,-20.2,26.2
2016-12-23 01:18:00,0.0,1.97244,0.00036,411.063,0.025,0.0420,0.0013,139.996,45.000,31868.38261,1.97324,411.269,34.334,45.072,45.000,0.00,0.07,-272.88,-272.90,-5,538,-955,19.6,1.5,-34.1,20.0,1.6,-33.3,0.46,1.89,-20.2,26.2
2016-12-23 01:19:00,0.0,1.97269,0.00039,411.076,0.035,0.0413,0.0024,140.001,45.000,31869.21850,1.97348,411.281,34.340,45.072,45.000,0.00,0.06,-272.89,-272.92,-5,538,-955,19.6,1.5,-34.1,20.0,1.6,-33.4,0.46,1.91,-20.2,26.3
2016-12-23 01:20:00,0.0,1.97263,0.00031,411.048,0.031,0.0404,0.0016,140.002,45.000,31872.19681,1.97341,411.248,34.372,45.072,45.000,0.00,0.06,-272.89,-272.92,-5,538,-955,19.6,1.4,-34.4,20.0,1.5,-33.6,0.47,1.95,-20.2,26.3
2016-12-23 01:21:00,0.0,1.97281,0.00032,411.043,0.033,0.0405,0.0014,139.998,45.000,31869.79517,1.97359,411.243,34.369,45.072,45.000,0.00,0.06,-272.87,-272.91,-5,538,-955,19.6,1.4,-34.5,20.0,1.5,-33.7,0.47,1.98,-20.2,26.3
2016-12-23 01:22:00,0.0,1.97303,0.00025,411.069,0.034,0.0401,0.0019,140.000,45.000,31868.80724,1.97381,411.268,34.366,45.072,45.000,0.00,0.06,-272.87,-272.91,-5,538,-955,19.6,1.4,-34.6,20.0,1.5,-33.8,0.46,1.99,-20.2,26.2
2016-12-23 01:23:00,0.0,1.97336,0.00042,411.099,0.034,0.0386,0.0018,140.000,45.000,31869.20670,1.97408,411.290,34.360,45.072,45.000,0.00,0.06,-272.88,-272.92,-5,538,-955,19.6,1.4,-34.8,20.0,1.5,-34.0,0.46,1.98,-20.2,26.2
2016-12-23 01:24:00,0.0,1.97368,0.00058,411.099,0.040,0.0385,0.0014,140.000,45.000,31869.08083,1.97440,411.288,34.352,45.072,45.000,0.00,0.06,-272.88,-272.91,-4,538,-955,19.6,1.4,-34.9,20.0,1.4,-34.2,0.46,1.96,-20.2,26.3
2016-12-23 01:25:00,0.0,1.97417,0.00035,411.134,0.038,0.0377,0.0019,140.000,45.000,31868.38141,1.97493,411.320,34.325,45.072,45.000,0.00,0.06,-272.87,-272.91,-5,538,-955,19.6,1.3,-35.2,20.0,1.4,-34.3,0.46,1.92,-20.2,26.3
2016-12-23 01:26:00,0.0,1.97346,0.00032,411.089,0.022,0.0373,0.0014,139.996,45.000,31868.39218,1.97420,411.273,34.309,45.072,45.000,0.00,0.06,-272.89,-272.92,-5,538,-955,19.6,1.3,-35.3,20.0,1.4,-34.5,0.46,1.89,-20.2,26.3
2016-12-23 01:27:00,0.0,1.97338,0.00045,411.090,0.033,0.0368,0.0020,139.999,45.000,31870.64973,1.97406,411.272,34.312,45.072,45.000,0.00,0.06,-272.89,-272.92,-5,538,-955,19.6,1.3,-35.5,20.0,1.4,-34.6,0.46,1.88,-20.2,26.3
2016-12-23 01:28:00,0.0,1.97327,0.00036,411.092,0.029,0.0368,0.0016,140.000,45.000,31871.64523,1.97401,411.274,34.317,45.072,45.000,0.00,0.07,-272.88,-272.91,-5,538,-955,19.6,1.3,-35.4,20.0,1.4,-34.6,0.46,1.90,-20.2,26.3
2016-12-23 01:29:00,0.0,1.97331,0.00035,411.090,0.030,0.0363,0.0018,140.000,45.000,31871.96505,1.97400,411.268,34.347,45.072,45.000,0.00,0.06,-272.88,-272.92,-5,538,-955,19.6,1.3,-35.4,20.0,1.4,-34.6,0.46,1.94,-20.2,26.3
2016-12-23 01:30:00,0.0,1.97330,0.00026,411.083,0.040,0.0367,0.0021,140.000,45.000,31871.93012,1.97401,411.265,34.372,45.072,45.000,0.00,0.06,-272.89,-272.92,-4,538,-955,19.6,1.3,-35.4,20.0,1.4,-34.8,0.46,1.97,-20.3,26.3
2016-12-23 01:31:00,0.0,1.97299,0.00045,411.062,0.034,0.0373,0.0011,140.000,45.000,31873.06895,1.97375,411.245,34.374,45.072,45.000,0.00,0.06,-272.88,-272.91,-5,538,-955,19.6,1.3,-35.3,20.0,1.4,-34.6,0.47,1.99,-20.2,26.3
2016-12-23 01:32:00,0.0,1.97286,0.00029,411.053,0.039,0.0383,0.0016,140.002,45.000,31874.72683,1.97358,411.244,34.370,45.072,45.000,0.00,0.06,-272.88,-272.91,-5,538,-955,19.6,1.3,-35.1,20.0,1.4,-34.5,0.46,1.99,-20.2,26.3
2016-12-23 01:33:00,0.0,1.97280,0.00046,411.068,0.030,0.0388,0.0018,139.996,45.000,31871.41597,1.97357,411.260,34.369,45.072,45.000,0.00,0.06,-272.89,-272.91,-5,538,-955,19.6,1.4,-34.8,20.0,1.4,-34.2,0.46,1.96,-20.2,26.3
2016-12-23 01:34:00,0.0,1.97290,0.00042,411.059,0.023,0.0399,0.0018,139.998,45.000,31871.08822,1.97365,411.254,34.375,45.072,45.000,0.00,0.06,-272.88,-272.91,-5,538,-955,19.6,1.4,-34.6,20.0,1.5,-34.0,0.46,1.92,-20.2,26.3
2016-12-23 01:35:00,0.0,1.97275,0.00046,411.064,0.033,0.0408,0.0016,140.000,45.000,31872.73640,1.97356,411.266,34.374,45.072,45.000,0.00,0.06,-272.88,-272.91,-5,538,-954,19.6,1.4,-34.4,20.0,1.5,-33.8,0.46,1.90,-20.2,26.3
2016-12-23 01:36:00,0.0,1.97280,0.00025,411.069,0.029,0.0404,0.0022,140.000,45.000,31873.20364,1.97357,411.268,34.375,45.072,45.000,0.00,0.06,-272.89,-272.91,-4,538,-955,19.6,1.4,-34.5,20.0,1.5,-33.8,0.46,1.88,-20.3,26.3
2016-12-23 01:37:00,0.0,1.97332,0.00040,411.089,0.032,0.0389,0.0017,139.998,45.000,31872.12616,1.97407,411.282,34.375,45.072,45.000,0.00,0.06,-272.89,-272.92,-5,538,-954,19.6,1.4,-34.7,20.0,1.5,-34.0,0.46,1.89,-20.2,26.3
2016-12-23 01:38:00,0.0,1.97348,0.00042,411.066,0.030,0.0387,0.0020,140.001,45.000,31872.20518,1.97425,411.257,34.374,45.072,45.000,0.00,0.06,-272.86,-272.91,-5,538,-954,19.6,1.4,-35.0,20.0,1.4,-34.2,0.46,1.92,-20.3,26.3
2016-12-23 01:39:00,0.0,1.97319,0.00047,411.091,0.030,0.0382,0.0017,139.998,45.000,31869.81581,1.97390,411.278,34.374,45.072,45.000,0.00,0.06,-272.88,-272.93,-5,538,-954,19.6,1.3,-35.2,20.0,1.4,-34.4,0.46,1.95,-20.2,26.3
2016-12-23 01:40:00,0.0,1.97300,0.00048,411.078,0.021,0.0381,0.0018,140.000,45.000,31872.66844,1.97375,411.266,34.375,45.072,45.000,0.00,0.06,-272.88,-272.92,-5,538,-954,19.6,1.3,-35.2,20.0,1.4,-34.6,0.46,1.98,-20.3,26.3
2016-12-23 01:41:00,0.0,1.97288,0.00036,411.089,0.037,0.0371,0.0015,139.998,45.000,31872.19478,1.97360,411.273,34.375,45.072,45.000,0.00,0.06,-272.88,-272.91,-5,538,-954,19.6,1.3,-35.3,20.0,1.4,-34.6,0.46,1.99,-20.2,26.3
2016-12-23 01:42:00,0.0,1.97251,0.00035,411.050,0.035,0.0370,0.0019,140.001,45.000,31871.58277,1.97322,411.234,34.372,45.072,45.000,0.00,0.07,-272.87,-272.91,-4,538,-954,19.6,1.3,-35.2,20.1,1.4,-34.6,0.46,1.97,-20.2,26.3
2016-12-23 01:43:00,0.0,1.97289,0.00033,411.068,0.030,0.0372,0.0018,140.000,45.000,31869.74486,1.97364,411.250,34.372,45.072,45.000,0.00,0.06,-272.89,-272.92,-5,538,-954,19.6,1.3,-35.3,20.1,1.4,-34.6,0.46,1.95,-20.3,26.3
2016-12-23 01:44:00,0.0,1.97297,0.00044,411.090,0.032,0.0375,0.0015,139.999,45.000,31869.43510,1.97367,411.274,34.374,45.072,45.000,0.00,0.06,-272.88,-272.92,-5,538,-954,19.6,1.3,-35.4,20.0,1.4,-34.6,0.46,1.92,-20.3,26.3
2016-12-23 01:45:00,0.0,1.97290,0.00058,411.085,0.027,0.0369,0.0016,140.001,45.000,31870.66752,1.97361,411.267,34.375,45.072,45.000,0.00,0.07,-272.88,-272.91,-5,538,-954,19.6,1.3,-35.4,20.0,1.4,-34.6,0.46,1.89,-20.2,26.3